Starlink 31186

operational
NORAD ID: 59030 Int'l Des: 2024-038 Owner: SPXS Country: US Constellation: starlink
LEOCIRCULAR

Starlink 31186について

説明を読み込み中...

リアルタイム位置

3D地球を読み込み中...

次回通過

高度履歴

Altitude vs Time

uPlot chart will show altitude changes over time

軌道要素

1 59030U 24038H 25307.54630413 .00003184 00000-0 12513-3 0 9998
2 59030 43.0017 19.6301 0001403 275.6522 84.4169 15.27590649 95465
Epoch: Nov 3, 2025 • Age: 17 hours

現在のステータス

高度 483.8 km
速度 7.62 km/s
衛星直下点 -8.13°S, 131.75°W
打ち上げ日 Feb 25, 2024
運用期間 1.6 years
タイプ internet

技術仕様

分類 Payload
質量 730.00 kg
乾燥質量 700.00 kg
総質量 730.00 kg
長さ 0.30 m
直径 4.10 m
スパン 29.00 m
形状 Box + pan
製造者 SPXS
バスタイプ Starlink V2M
フェーズステータス In Orbit
所有者/国 SPXS/US

大規模コンステレーション

Loading constellations...